Location: DARK SKY Beskydy - Park tmavé oblohy, www.darkskybeskydy.cz
(49.4926°N, 18.5016°E)
Time: 03:43:41
(UTC+01:00)

N. Korean satellite - Pass Details

Date: 14 December 2022
Orbit: 407 x 442 km, 97.3° (Epoch: 05 February)

Event Time Altitude Azimuth Distance (km) Brightness Sun altitude
Rises 05:41:07 0° 7° (N) 2,485 10.1 -17.3°
Reaches altitude 10° 05:43:15 10° 360° (N) 1,597 9.0 -17.0°
Maximum altitude 05:46:29 41° 289° (WNW) 666 6.7 -16.5°
Drops below altitude 10° 05:49:38 10° 218° (SW) 1,553 8.9 -16.0°
Sets 05:51:41 0° 211° (SSW) 2,406 10.0 -15.7°
